Starlink 11589

operational
NORAD ID: 63311 Int'l Des: 2025-057 Owner: SPXS Country: US Constellation: starlink
LEOCIRCULAR

关于 Starlink 11589

正在加载描述...

实时位置

正在加载3D地球...

即将过境

高度历史

Altitude vs Time

uPlot chart will show altitude changes over time

两行轨道根数

1 63311U 25057E 25305.51060571 .00258135 00000-0 19494-2 0 9996
2 63311 42.9993 317.5752 0002897 272.2601 87.7935 15.70886768 37014
Epoch: Nov 1, 2025 • Age: 56 hours

当前状态

高度 351.8 km
速度 7.70 km/s
星下点 7.42°N, 43.09°W
发射日期 Mar 18, 2025
运行时间 0.6 years
类型 internet

技术详情

分类 Payload
质量 960.00 kg
干质量 910.00 kg
总质量 960.00 kg
长度 0.30 m
直径 4.10 m
跨度 29.00 m
形状 Box + pan
制造商 SPXS
平台类型 Starlink V2MD
阶段状态 In Orbit
所有者/国家 SPXS/US

大型星座

Loading constellations...